Location: Buckeye Ditch
(40.9104°N, 122.9517°W)
Time: 00:29:25
(UTC+00:00)

SR - Pass Details

Date: 25 May 2025
Orbit: 570 x 855 km, 66.7° (Epoch: 11 June)

Event Time Altitude Azimuth Distance (km) Brightness Sun altitude
Exits shadow 05:19:53 10° 87° (E) 2,460 ? -16.7°
Drops below altitude 10° 05:20:09 10° 84° (E) 2,487 ? -16.8°
Sets 05:24:39 0° 52° (NE) 3,422 ? -17.3°
